Flag for Russia Weather past 2 weeks in Kaliningrad, Russia

Now
81 °F

Passing clouds.


Feels Like: 81 °F
Forecast: 64 / 87 °F
Wind: 8 mph from East

Location: Kaliningrad/Khrabrovo Airport

Current Time: Jul 25, 2014 at 12:43:56 PM

Latest Report: Jul 25, 2014 at 12:00 PM


Visibility: N/A

Pressure: 30.09 "Hg

Humidity: 45%

Dew point: 57 °F

Location of KaliningradLocation

Historic Weather in Kaliningrad — Graph

°F

Kaliningrad temperature yesterday

Maximum temperature yesterday: 81 °F (at 2:30 PM)
Minimum temperature yesterday: 57 °F (at 5:30 AM)
Average temperature yesterday: 71 °F

Past Weeks' High & Low Weather Summary

 TemperatureHumidityPressure
High81 °F (Jul 10, 4:00 PM)94% (Jul 12, 10:30 AM)30.21 "Hg (Jul 12, 10:30 AM)
Low50 °F (Jul 18, 5:30 AM)30% (Jul 24, 2:30 PM)29.62 "Hg (Jul 13, 4:00 AM)
Average67 °F69%30.01 "Hg
* Reported Jul 10 11:00 AM — Jul 25 11:00 AM, Kaliningrad, Weather by CustomWeather, © 2014

Note: Actual official high and low records may vary slightly from our data, if they occured in-between our weather recording intervals... More about our weather records

Advertising

Kaliningrad weather history for previous 24 hours

 ConditionsComfort  
Time TempWeatherWind HumidityBarometerVisibility
11:00 AM
Jul 25
81 °FPassing clouds.10 mph39%30.09 "HgN/A
10:30 AM79 °FPassing clouds.8 mph45%30.09 "HgN/A
10:00 AM77 °FPassing clouds.8 mph47%30.09 "HgN/A
9:30 AM75 °FSunny.6 mph54%30.09 "Hg10 mi
9:00 AM73 °FPassing clouds.6 mph61%30.09 "HgN/A
8:30 AM70 °FPassing clouds.6 mph64%30.09 "HgN/A
8:00 AM68 °FSunny.6 mph69%30.09 "Hg10 mi
7:30 AM66 °FClear.3 mph78%30.09 "Hg10 mi
7:00 AM64 °FClear.1 mph83%30.07 "Hg10 mi
6:30 AM61 °FClear.1 mph88%30.09 "Hg5 mi
6:00 AM61 °FFog.No wind83%30.07 "Hg5 mi
5:30 AM61 °FFog.1 mph88%30.07 "Hg5 mi
5:00 AM61 °FFog.1 mph83%30.07 "Hg5 mi
4:00 AM61 °FFog.1 mph83%30.07 "Hg5 mi
3:00 AM61 °FFog.1 mph83%30.07 "Hg5 mi
2:30 AM61 °FClear.No wind83%30.07 "Hg10 mi
2:00 AM61 °FClear.No wind83%30.09 "Hg10 mi
1:30 AM63 °FClear.1 mph77%30.09 "Hg10 mi
1:00 AM63 °FClear.1 mph77%30.07 "Hg10 mi
12:30 AM63 °FClear.No wind77%30.07 "Hg10 mi
12:00 AM64 °FClear.No wind78%30.07 "Hg10 mi
11:30 PM
Jul 24
64 °FSunny.No wind78%30.07 "Hg10 mi
11:00 PM66 °FSunny.No wind78%30.07 "Hg10 mi
10:30 PM68 °FSunny.3 mph78%30.07 "Hg10 mi
10:00 PM70 °FSunny.1 mph73%30.07 "Hg10 mi
9:30 PM72 °FSunny.1 mph69%30.07 "Hg10 mi
9:00 PM73 °FSunny.6 mph65%30.04 "Hg10 mi
8:30 PM73 °FSunny.8 mph65%30.04 "Hg10 mi
8:00 PM73 °FSunny.8 mph61%30.04 "Hg10 mi
7:30 PM75 °FSunny.10 mph57%30.04 "Hg10 mi
7:00 PM75 °FSunny.10 mph57%30.04 "Hg10 mi
6:30 PM77 °FSunny.13 mph54%30.04 "Hg10 mi
6:00 PM77 °FSunny.10 mph54%30.07 "Hg10 mi
5:30 PM79 °FSunny.13 mph51%30.07 "Hg10 mi
5:00 PM81 °FPassing clouds.13 mph30%30.07 "HgN/A
4:30 PM81 °FSunny.15 mph30%30.07 "Hg10 mi
4:00 PM81 °FPassing clouds.15 mph30%30.07 "HgN/A
3:30 PM81 °FSunny.17 mph30%30.07 "Hg10 mi
3:00 PM81 °FPassing clouds.15 mph30%30.07 "HgN/A
2:30 PM81 °FPassing clouds.15 mph30%30.09 "HgN/A
2:00 PM79 °FPassing clouds.13 mph37%30.09 "HgN/A
1:30 PM79 °FPassing clouds.15 mph39%30.09 "HgN/A
1:00 PM79 °FPassing clouds.15 mph42%30.09 "HgN/A
12:30 PM79 °FPassing clouds.13 mph39%30.09 "HgN/A
12:00 PM79 °FPassing clouds.15 mph37%30.09 "HgN/A
Weather by CustomWeather, © 2014

See weather overviewHow to use our weather pages